Showing default

HELIOS, 69021

AKA "HELIOS" on Space-Track | Orbit data source: Space-Track

HELIOS, 69021 is a Greek payload satellite in SSO that was launched on Sun, 03 May 2026 UTC via an FALCON 9 launch vehicle from the Air Force Western Test Range (AFWTR). Payload-class satellites include a variety of spacecraft equipped with specific instruments for various scientific and technological missions. These include communications satellites like Starlink; space stations such as the ISS; scientific satellites like the Hubble; Earth observation satellites from companies like Planet Labs, Umbra, and HawkEye 360; GPS; miniature CubeSats for education and research; and military/defense satellites.

Loading next visibility...
Identifier
69021, 2026-100AT
Orbit
SSO
Country
Flag of GRGR / GREC
Related business
Manufacturer
EMTECH
Mission
Operational spacecraft
Bus & Motor
CUBESAT 8U, Unknown motor
Mass
~8 kg wet, ~8 kg dry
Launch date (UTC)
2026-05-03 (2 months ago)
Launch vehicle
FALCON 9
Launch site
Air Force Western Test Range (AFWTR)
Object type
Payload
Rocket body
Debris
Shape & HBR
Unknown shape, 14.5 m
Radar Cross Section
Medium (>0.1 m² and <1 m²)

Expand to show TLE details & history
Last TLE update: 14 hours ago

TLE from 14 hours ago
0 HELIOS
1 69021U 26100AT  26171.26728045  .00005965  00000-0  27963-3 0  9993
2 69021  97.4018  68.9810 0004264   2.5503 357.5754 15.20049186  7270
Epoch: 2026-06-20T06:24Z
TLE epoch observation values (Epoch: 2026-06-20T06:24:53.030Z)
Latitude
0.00004°
Longitude
64.27568°
Altitude
505.849 km
Speed
7.613 km/s
True Right ascension
04h 35m 55s
True Declination
0° 00' 00"
Sunlit
Object was in daylight at epoch
Visualization orbit readout
Latitude
Unknown
Longitude
Unknown
Altitude
Unknown
Speed
Unknown
Apparent Right ascension
Unknown
Apparent Declination
Unknown
Sunlit
N/A
Visualization observer readout
Local Sidereal Time
07:16:47
Azimuth
Unknown
Elevation
Unknown
Doppler factor
Unknown
Orbital elements
Apogee altitude
505.592 km
Perigee altitude
499.724 km
Semi-major axis
6,880.795 km
Eccentricity
0.00043
Inclination
97.4018°
RAAN
68.981°
Arg. of periapsis
2.5503°
True anomaly
357.57333°
Mean anomaly
357.5754°
Eccentric anomaly
357.57437°
Mean motion
3.80264 °/min
Orbital period
94.67 mins
BSTAR
0.00027963
Loading maneuver chart data...
Computing Atmospheric mass density...
Loading historical data...
Loading historical data...
Loading historical data...
Loading historical data...
Loading historical data...
Loading historical data...
Loading historical data...

Documentation

Showing up to 5 results
|